Hourly Data Report for July 12, 2016

TORONTO CITY
ONTARIO

43°40'00.000" N
79°24'00.000" W
112.50 m
6158355
71508
XTO

Download Data

Hourly Data (July 2016)
Hourly Data Report for July 12, 2016
TIME
LST
Temp Definition
°C
Dew Point Definition
°C
Rel Hum Definition
%
Precip. Amount Definition
mm

Wind Dir Definition
10's deg

Wind Spd Definition
km/h
Visibility Definition
km
Stn Press Definition
kPa
Hmdx Definition


Wind Chill Definition


Weather Definition


00:00 20.9 15.1 69 0.0 LegendMM LegendMM   100.38 25   LegendNANA
01:00 21.2 15.3 69 0.0 LegendMM LegendMM   100.31 25   LegendNANA
02:00 21.1 15.7 72 0.0 LegendMM LegendMM   100.30 26   LegendNANA
03:00 21.0 15.5 71 0.0 LegendMM LegendMM   100.27 25   LegendNANA
04:00 20.7 15.9 74 0.0 LegendMM LegendMM   100.27 25   LegendNANA
05:00 20.7 15.9 74 0.0 LegendMM LegendMM   100.31 25   LegendNANA
06:00 20.7 16.5 77 0.0 LegendMM LegendMM   100.32 26   LegendNANA
07:00 21.5 16.8 75 0.0 LegendMM LegendMM   100.29 27   LegendNANA
08:00 22.5 16.5 69 0.0 LegendMM LegendMM   100.32 27   LegendNANA
09:00 23.5 16.5 65 0.0 LegendMM LegendMM   100.26 28   LegendNANA
10:00 25.2 16.7 59 0.0 LegendMM LegendMM   100.24 30   LegendNANA
11:00 26.4 16.8 55 0.0 LegendMM LegendMM   100.24 32   LegendNANA
12:00 29.2 17.6 50 0.0 LegendMM LegendMM   100.21 35   LegendNANA
13:00 29.6 16.9 47 0.0 LegendMM LegendMM   100.12 35   LegendNANA
14:00 28.7 16.3 47 0.0 LegendMM LegendMM   100.06 34   LegendNANA
15:00 29.5 16.7 46 0.0 LegendMM LegendMM   99.99 35   LegendNANA
16:00 28.9 16.4 47 0.0 LegendMM LegendMM   99.97 34   LegendNANA
17:00 28.2 16.9 50 0.0 LegendMM LegendMM   99.90 33   LegendNANA
18:00 27.3 16.9 53 0.0 LegendMM LegendMM   99.88 33   LegendNANA
19:00 26.4 17.3 57 0.0 LegendMM LegendMM   99.84 32   LegendNANA
20:00 25.5 17.5 61 0.0 LegendMM LegendMM   99.89 31   LegendNANA
21:00 25.1 17.7 64 0.0 LegendMM LegendMM   99.94 31   LegendNANA
22:00 24.5 17.7 66 0.0 LegendMM LegendMM   99.94 30   LegendNANA
23:00 23.8 18.0 70 0.0 LegendMM LegendMM   99.94 30   LegendNANA

Notes on Data Quality.

Legend

  • E = Estimated
  • M = Missing
  • NA = Not Available*
  • [empty] = Indicates an unobserved value
Date modified: